GW5129 Weather Reports


Display with metric or nautical units.
time (UTC)temp
F
wind
direction
speed
MPH
gust
MPH
rain 1hr
in
rain 24hr
in
rain mn
in
humidity
%
barometer
mb
20260504034120 53 164 0.0 1.0 0.00 0.00 0.00 61 1016.3
20260504033618 53 149 0.0 1.0 0.00 0.00 0.00 59 1016.3
20260504033115 52 141 0.0 1.0 0.00 0.00 0.00 60 1016.2
20260504032612 52 131 1.0 2.0 0.00 0.00 0.00 61 1016.3
20260504032109 52 140 0.0 1.0 0.00 0.00 0.00 63 1016.3
20260504031606 51 128 0.0 2.0 0.00 0.00 0.00 66 1016.4
20260504031102 51 65 0.0 0.0 0.00 0.00 0.00 69 1016.4
20260504030559 50 65 0.0 0.0 0.00 0.00 0.00 69 1016.2
20260504030055 50 60 0.0 0.0 0.00 0.00 0.00 69 1016.3
20260504025553 50 60 0.0 0.0 0.00 0.00 0.00 67 1016.1
20260504025049 50 60 0.0 0.0 0.00 0.00 0.00 67 1016.3
20260504024547 50 60 0.0 1.0 0.00 0.00 0.00 66 1016.2
20260504024043 50 60 0.0 0.0 0.00 0.00 0.00 67 1016.5
20260504023540 49 60 0.0 0.0 0.00 0.00 0.00 66 1016.2
20260504023036 49 60 0.0 0.0 0.00 0.00 0.00 66 1016.4
20260504022532 49 60 0.0 0.0 0.00 0.00 0.00 66 1016.4
20260504022028 49 60 1.0 1.0 0.00 0.00 0.00 66 1016.4
20260504021526 48 60 0.0 0.0 0.00 0.00 0.00 65 1016.2
20260504021023 49 60 0.0 0.0 0.00 0.00 0.00 64 1016.4
20260504020520 49 60 0.0 0.0 0.00 0.00 0.00 64 1016.4
20260504020016 49 60 0.0 0.0 0.00 0.00 0.00 64 1016.3
20260504015512 49 60 0.0 0.0 0.00 0.00 0.00 64 1016.3
20260504015008 49 60 0.0 1.0 0.00 0.00 0.00 64 1016.2
20260504014504 49 60 1.0 1.0 0.00 0.00 0.00 64 1016.2
20260504014002 49 60 0.0 0.0 0.00 0.00 0.00 62 1016.2
20260504013500 50 60 0.0 0.0 0.00 0.00 0.00 62 1016.1
20260504012955 50 60 1.0 1.0 0.00 0.00 0.00 60 1016.3
20260504012454 51 60 0.0 1.0 0.00 0.00 0.00 59 1016.2
20260504011952 51 60 0.0 1.0 0.00 0.00 0.00 58 1016.0
20260504011447 51 60 0.0 1.0 0.00 0.00 0.00 58 1016.1
20260504010944 51 61 1.0 2.0 0.00 0.00 0.00 58 1016.0
20260504010440 52 60 0.0 1.0 0.00 0.00 0.00 57 1016.1
20260504005936 52 60 1.0 2.0 0.00 0.00 0.00 56 1016.1
20260504005433 52 64 0.0 1.0 0.00 0.00 0.00 56 1016.1
20260504004930 53 64 1.0 1.0 0.00 0.00 0.00 56 1016.0
20260504004428 53 64 1.0 1.0 0.00 0.00 0.00 55 1016.0
20260504003925 53 64 0.0 1.0 0.00 0.00 0.00 54 1015.9
20260504003421 54 88 1.0 1.0 0.00 0.00 0.00 52 1015.7
20260504002918 55 104 0.0 0.0 0.00 0.00 0.00 49 1016.1
20260504002415 56 109 0.0 0.0 0.00 0.00 0.00 47 1015.9
20260504001912 56 109 1.0 1.0 0.00 0.00 0.00 45 1015.9
20260504001410 56 218 1.0 1.0 0.00 0.00 0.00 44 1016.2
20260504000906 56 238 0.0 1.0 0.00 0.00 0.00 42 1016.0
20260504000403 57 227 0.0 0.0 0.00 0.00 0.00 42 1016.0
20260503235901 58 225 1.0 3.0 0.00 0.00 0.00 40 1015.9
20260503235359 58 270 0.0 1.0 0.00 0.00 0.00 41 1016.0
20260503234855 58 237 0.0 1.0 0.00 0.00 0.00 40 1016.1
20260503234353 58 199 2.0 3.0 0.00 0.00 0.00 38 1016.0
20260503233851 59 234 0.0 0.0 0.00 0.00 0.00 38 1016.0
20260503233347 59 251 0.0 2.0 0.00 0.00 0.00 37 1016.0
20260503232843 59 101 1.0 3.0 0.00 0.00 0.00 37 1016.1
20260503232340 59 124 2.0 6.0 0.00 0.00 0.00 37 1016.1
20260503231839 59 264 1.0 3.0 0.00 0.00 0.00 38 1016.2
20260503231335 59 104 2.0 4.0 0.00 0.00 0.00 37 1016.1
20260503230831 60 231 3.0 7.0 0.00 0.00 0.00 37 1016.0
20260503230328 60 137 0.0 3.0 0.00 0.00 0.00 37 1016.4
20260503225826 60 176 3.0 3.0 0.00 0.00 0.00 37 1016.2
20260503225322 60 77 0.0 1.0 0.00 0.00 0.00 36 1016.3
20260503224818 60 201 4.0 6.0 0.00 0.00 0.00 37 1016.4
20260503224316 60 340 1.0 1.0 0.00 0.00 0.00 37 1016.3
20260503223813 60 91 1.0 3.0 0.00 0.00 0.00 36 1016.5
20260503223311 61 213 1.0 2.0 0.00 0.00 0.00 36 1016.4
20260503222806 61 232 2.0 3.0 0.00 0.00 0.00 36 1016.6
20260503222305 61 173 1.0 2.0 0.00 0.00 0.00 36 1016.3
20260503221803 61 88 0.0 2.0 0.00 0.00 0.00 38 1016.5
20260503221301 61 105 0.0 4.0 0.00 0.00 0.00 36 1016.4
20260503220756 60 249 3.0 8.0 0.00 0.00 0.00 36 1016.4
20260503220254 60 76 4.0 6.0 0.00 0.00 0.00 36 1016.4
20260503215750 61 180 2.0 6.0 0.00 0.00 0.00 35 1016.6
20260503215247 61 103 1.0 4.0 0.00 0.00 0.00 36 1016.4
20260503214746 61 73 4.0 9.0 0.00 0.00 0.00 36 1016.6
20260503214242 60 116 1.0 9.0 0.00 0.00 0.00 36 1016.6
20260503213740 62 241 2.0 6.0 0.00 0.00 0.00 37 1016.5
20260503213237 61 212 4.0 6.0 0.00 0.00 0.00 36 1016.5
20260503212734 60 164 2.0 9.0 0.00 0.00 0.00 35 1016.6
20260503212232 61 108 5.0 10.0 0.00 0.00 0.00 35 1016.6
20260503211729 62 218 0.0 6.0 0.00 0.00 0.00 36 1016.4
20260503211225 60 116 2.0 4.0 0.00 0.00 0.00 37 1016.4
20260503210720 62 143 5.0 7.0 0.00 0.00 0.00 34 1016.5
20260503210219 62 157 1.0 7.0 0.00 0.00 0.00 35 1016.5
20260503205714 62 234 2.0 6.0 0.00 0.00 0.00 36 1016.3
20260503205210 61 230 1.0 7.0 0.00 0.00 0.00 37 1016.4
20260503204706 60 15 2.0 3.0 0.00 0.00 0.00 37 1016.4
20260503204204 61 248 2.0 7.0 0.00 0.00 0.00 34 1016.5
20260503203701 61 226 2.0 4.0 0.00 0.00 0.00 36 1016.8
20260503203159 60 167 5.0 7.0 0.00 0.00 0.00 36 1016.9
20260503202655 60 138 2.0 3.0 0.00 0.00 0.00 37 1017.1
20260503202154 62 152 4.0 6.0 0.00 0.00 0.00 37 1017.1
20260503201652 60 116 4.0 7.0 0.00 0.00 0.00 38 1017.2
20260503201149 60 197 4.0 9.0 0.00 0.00 0.00 36 1017.2
20260503200644 60 102 4.0 6.0 0.00 0.00 0.00 36 1017.3
20260503200141 61 131 9.0 11.0 0.00 0.00 0.00 39 1017.5
20260503195638 60 171 2.0 2.0 0.00 0.00 0.00 40 1017.6
20260503195135 59 175 4.0 10.0 0.00 0.00 0.00 38 1017.6
20260503194632 60 143 4.0 7.0 0.00 0.00 0.00 38 1017.8
20260503194127 60 357 2.0 2.0 0.00 0.00 0.00 39 1017.6
20260503193624 60 313 2.0 3.0 0.00 0.00 0.00 41 1017.8
20260503193120 59 151 4.0 6.0 0.00 0.00 0.00 38 1018.1
20260503192616 60 82 1.0 4.0 0.00 0.00 0.00 37 1018.0
20260503192112 61 336 2.0 9.0 0.00 0.00 0.00 38 1018.0
20260503191609 60 225 2.0 3.0 0.00 0.00 0.00 37 1018.0
20260503191105 62 349 2.0 7.0 0.00 0.00 0.00 38 1018.1
20260503190603 61 16 3.0 4.0 0.00 0.00 0.00 38 1018.3
20260503190100 60 170 4.0 6.0 0.00 0.00 0.00 37 1018.4
20260503185556 61 330 3.0 4.0 0.00 0.00 0.00 40 1018.6
20260503185056 60 142 2.0 6.0 0.00 0.00 0.00 39 1018.6
20260503184552 59 102 1.0 7.0 0.00 0.00 0.00 40 1018.6
20260503184049 60 275 4.0 14.0 0.00 0.00 0.00 38 1018.6
20260503183545 59 45 2.0 8.0 0.00 0.00 0.00 39 1018.8
20260503183043 58 127 2.0 6.0 0.00 0.00 0.00 39 1019.0
20260503182541 59 94 5.0 8.0 0.00 0.00 0.00 41 1019.0
20260503182039 57 87 5.0 7.0 0.00 0.00 0.00 41 1018.9
20260503181535 57 145 0.0 2.0 0.00 0.00 0.00 42 1018.9
20260503181032 58 329 2.0 6.0 0.00 0.00 0.00 42 1018.8
20260503180529 58 211 3.0 8.0 0.00 0.00 0.00 40 1018.9
20260503180026 59 334 4.0 6.0 0.00 0.00 0.00 39 1018.9
20260503175524 59 104 2.0 3.0 0.00 0.00 0.00 40 1018.9
20260503175020 57 297 2.0 4.0 0.00 0.00 0.00 42 1019.1
20260503174518 57 313 0.0 1.0 0.00 0.00 0.00 46 1019.2
20260503174014 56 249 2.0 6.0 0.00 0.00 0.00 43 1019.2
20260503173509 58 163 5.0 7.0 0.00 0.00 0.00 43 1019.1
20260503173006 57 54 1.0 3.0 0.00 0.00 0.00 42 1019.2
20260503172504 56 120 4.0 8.0 0.00 0.00 0.00 40 1019.3
20260503172001 56 241 4.0 9.0 0.00 0.00 0.00 40 1019.5
20260503171456 56 77 1.0 3.0 0.00 0.00 0.00 40 1019.5
20260503170954 57 333 1.0 1.0 0.00 0.00 0.00 40 1019.7
20260503170450 58 128 1.0 3.0 0.00 0.00 0.00 42 1019.9
20260503150843 53 160 4.0 6.0 0.00 0.00 0.00 45 1020.8
20260503150338 53 207 7.0 13.0 0.00 0.00 0.00 45 1020.7
20260503140303 51 55 1.0 4.0 0.00 0.00 0.00 57 1021.1
20260503131232 46 109 3.0 8.0 0.00 0.00 0.00 74 1021.2
20260503130730 45 111 5.0 7.0 0.00 0.00 0.00 76 1021.1
20260503130227 45 139 3.0 6.0 0.00 0.00 0.00 78 1021.3
20260503120153 38 125 1.0 4.0 0.00 0.00 0.00 94 1020.9
20260503110621 34 106 0.0 1.0 0.00 0.00 0.00 94 1020.5
20260503110118 34 112 0.0 1.0 0.00 0.00 0.00 94 1020.4
20260503090508 37 136 0.0 0.0 0.00 0.00 0.00 92 1020.0
20260503081434 37 97 0.0 0.0 0.00 0.00 0.00 92 1019.6
20260503080931 38 97 0.0 1.0 0.00 0.00 0.00 92 1019.5
20260503080427 38 97 0.0 1.0 0.00 0.00 0.00 92 1019.6
20260503072904 38 96 2.0 2.0 0.00 0.00 0.00 92 1019.3
20260503072401 38 94 0.0 0.0 0.00 0.00 0.00 92 1019.3
20260503071857 37 84 0.0 0.0 0.00 0.00 0.00 92 1019.3
20260503071355 37 72 0.0 1.0 0.00 0.00 0.00 92 1019.3
20260503070851 37 50 0.0 0.0 0.00 0.00 0.00 92 1019.2
20260503070349 37 50 0.0 0.0 0.00 0.00 0.00 92 1019.4
20260503060308 37 61 0.0 1.0 0.00 0.00 0.00 90 1019.7
20260503054756 37 64 1.0 2.0 0.00 0.00 0.00 90 1019.5
20260503054252 37 30 0.0 0.0 0.00 0.00 0.00 90 1019.5
20260503053750 38 30 0.0 0.0 0.00 0.00 0.00 89 1019.6
20260503053248 38 30 0.0 0.0 0.00 0.00 0.00 89 1019.6
20260503052744 38 30 0.0 0.0 0.00 0.00 0.00 89 1019.5
20260503052241 38 30 0.0 0.0 0.00 0.00 0.00 89 1019.6
20260503051735 38 30 0.0 0.0 0.00 0.00 0.00 89 1019.5
20260503051234 38 30 0.0 0.0 0.00 0.00 0.00 89 1019.5
20260503050730 38 30 0.0 0.0 0.00 0.00 0.00 89 1019.5
20260503050226 38 30 0.0 0.0 0.00 0.00 0.00 88 1019.6
20260503045724 38 30 0.0 0.0 0.00 0.00 0.00 88 1019.7
20260503045222 38 29 0.0 0.0 0.00 0.00 0.00 88 1019.7
20260503044718 39 19 0.0 0.0 0.00 0.00 0.00 88 1019.6
20260503044215 39 17 0.0 0.0 0.00 0.00 0.00 88 1019.6
20260503043712 39 17 0.0 0.0 0.00 0.00 0.00 88 1019.8
20260503043210 38 17 0.0 0.0 0.00 0.00 0.00 87 1019.6
20260503042705 39 17 0.0 0.0 0.00 0.00 0.00 87 1019.7
20260503042202 39 17 0.0 0.0 0.00 0.00 0.00 87 1019.8
20260503041658 40 17 0.0 0.0 0.00 0.00 0.00 87 1019.8
20260503041156 39 16 0.0 0.0 0.00 0.00 0.00 87 1019.7
20260503040653 40 16 0.0 0.0 0.00 0.00 0.00 86 1019.5
20260503040151 39 11 0.0 0.0 0.00 0.00 0.00 86 1019.6
20260503035647 40 11 0.0 0.0 0.00 0.00 0.00 86 1019.8
20260503035145 40 11 0.0 0.0 0.00 0.00 0.00 86 1019.6
20260503034642 40 11 0.0 0.0 0.00 0.00 0.00 86 1019.6